Portada
METAR-TAF:

METAR-TAF

Aeroports :

Derby, Austràlia

latitud: 17-22-12S, longitud: 123-39-38E, altitud: 7 m

Observació

L'informe es va fer fa 40 minuts, a les 22:00 UTC
Vent calma
Temperatura 22°C
Humitat 57%
Pressió 1011 hPa
Visibilitat 10 km o més

METAR: YDBY 142200Z AUTO 00000KT 9999 // NCD 22/13 Q1011

Hora: 06:40 (22:40 UTC)


TAF: manca

Observacions i pronòstics meteorològics de més de 4000 aeroports (METAR i TAF).

Les estacions disponibles són els punts grocs i vermells al mapa.

Posi el ratolí al punt desitjat per veure el nom de l'estació.

Feu clic per veure les observacions i els pronòstics meteorològics.

Per canviar el mapa: feu clic els botons verds amb una creu de color negre per apropar; al botó verd amb un guió per allunyar la imatge; o en les fletxes verdes per a mapes adjacents.


METAR-TAF: